TimeMST,TemperatureF,Dew PointF,Humidity,Sea Level PressureIn,VisibilityMPH,Wind Direction,Wind SpeedMPH,Gust SpeedMPH,PrecipitationIn,Events,Conditions,WindDirDegrees,DateUTC
12:53 AM,6.1,1.9,83,30.00,10.0,NW,13.8,-,N/A,,Partly Cloudy,320,2013-01-30 07:53:00
1:53 AM,5.0,1.0,84,29.99,10.0,NW,8.1,-,N/A,,Overcast,310,2013-01-30 08:53:00
2:53 AM,8.1,-0.9,67,29.98,10.0,WNW,17.3,-,N/A,,Overcast,290,2013-01-30 09:53:00
3:53 AM,3.9,-4.0,70,29.97,10.0,West,10.4,-,N/A,,Clear,270,2013-01-30 10:53:00
4:53 AM,5.0,-2.9,70,29.97,10.0,West,10.4,-,N/A,,Clear,280,2013-01-30 11:53:00
5:53 AM,8.1,-0.9,67,29.96,10.0,West,5.8,-,N/A,,Partly Cloudy,270,2013-01-30 12:53:00
6:53 AM,14.0,3.9,64,29.92,10.0,West,23.0,-,N/A,,Mostly Cloudy,260,2013-01-30 13:53:00
7:53 AM,16.0,5.0,62,29.93,10.0,WNW,15.0,-,N/A,,Mostly Cloudy,290,2013-01-30 14:53:00
8:53 AM,19.0,7.0,59,29.92,10.0,West,17.3,-,N/A,,Overcast,280,2013-01-30 15:53:00
9:53 AM,21.0,9.0,60,29.92,10.0,WNW,21.9,34.5,N/A,,Overcast,290,2013-01-30 16:53:00
10:53 AM,23.0,10.0,58,29.93,10.0,WNW,32.2,40.3,N/A,,Overcast,290,2013-01-30 17:53:00
11:53 AM,24.1,10.9,57,29.94,10.0,WNW,31.1,40.3,N/A,,Overcast,300,2013-01-30 18:53:00
12:53 PM,26.1,12.0,55,29.90,10.0,WNW,28.8,43.7,N/A,,Overcast,290,2013-01-30 19:53:00
1:53 PM,27.0,12.9,56,29.90,10.0,WNW,31.1,36.8,N/A,,Overcast,290,2013-01-30 20:53:00
2:53 PM,28.0,15.1,58,29.88,10.0,West,25.3,34.5,N/A,,Overcast,280,2013-01-30 21:53:00
3:53 PM,30.0,15.1,54,29.90,10.0,NW,20.7,31.1,N/A,,Overcast,310,2013-01-30 22:53:00
4:53 PM,27.0,17.1,66,29.92,10.0,West,13.8,-,N/A,,Overcast,280,2013-01-30 23:53:00
5:53 PM,25.0,18.0,75,29.93,10.0,West,10.4,-,N/A,,Overcast,270,2013-01-31 00:53:00
6:53 PM,25.0,17.1,72,29.91,10.0,West,13.8,-,N/A,,Overcast,270,2013-01-31 01:53:00
7:53 PM,26.1,17.1,69,29.91,10.0,West,15.0,-,N/A,,Overcast,280,2013-01-31 02:53:00
8:53 PM,27.0,16.0,63,29.90,10.0,WNW,20.7,29.9,N/A,,Overcast,290,2013-01-31 03:53:00
9:53 PM,26.1,16.0,66,29.90,10.0,West,17.3,25.3,N/A,,Overcast,280,2013-01-31 04:53:00
10:53 PM,25.0,16.0,69,29.90,10.0,West,13.8,-,N/A,,Overcast,280,2013-01-31 05:53:00
11:53 PM,23.0,15.1,72,29.91,10.0,NW,9.2,-,N/A,,Mostly Cloudy,310,2013-01-31 06:53:00